Notices

What's New in latest Release from April 7th, 2021:

- Updated Glossary, including Speed of Maximum Gust, and Total Hourly Precipitation

- Updated national and regional climate services offices contacts and prices information

- Addition of station inventory lists for 1981-2010, 1971-2000, and 1961-1990 Normals.

If you haven't already, please take our survey and provide feedback about our website: https://eccc.sondage-survey.ca/f/LanguageSelection.aspx?s=442ca660-fcf1-47c0-95a9-59707d6fd709

Hourly Data Report for November 28, 2019

VICTORIA UNIVERSITY CS
BRITISH COLUMBIA
Current Station Operator: ECCC - MSC

48°27'25.200" N
123°18'16.600" W
60.10 m
1018598
71783
WYJ

Download Data

Hourly Data (November 2019)
Hourly Data Report for November 28, 2019
TIME
LST
Temp Definition
°C
Dew Point Definition
°C
Rel Hum Definition
%
Precip. Amount Definition
mm

Wind Dir Definition
10's deg

Wind Spd Definition
km/h
Visibility Definition
km
Stn Press Definition
kPa
Hmdx Definition


Wind Chill Definition


Weather Definition


00:00 3.3 -8.1 43 0.0 3 13   100.29     LegendNANA
01:00 3.3 -9.0 40 0.0 3 18   100.32     LegendNANA
02:00 3.0 -9.5 39 0.0 3 17   100.37     LegendNANA
03:00 2.8 -8.6 43 0.0 3 14   100.40     LegendNANA
04:00 2.8 -8.6 43 0.0 3 14   100.40     LegendNANA
05:00 2.7 -8.7 43 0.0 3 14   100.42     LegendNANA
06:00 2.3 -8.1 46 0.0 3 11   100.44     LegendNANA
07:00 2.4 -8.1 46 0.0 3 15   100.51     LegendNANA
08:00 2.4 -7.4 49 0.0 2 14   100.60     LegendNANA
09:00 2.6 -8.1 45 0.0 3 11   100.63     LegendNANA
10:00 3.3 -8.1 43 0.0 3 10   100.65     LegendNANA
11:00 3.6 -8.2 42 0.0 3 14   100.68     LegendNANA
12:00 4.1 -8.1 41 0.0 2 13   100.67     LegendNANA
13:00 4.7 -7.5 41 0.0 2 8   100.63     LegendNANA
14:00 4.5 -7.9 40 0.0 2 11   100.58     LegendNANA
15:00 4.1 -8.3 40 0.0 2 10   100.60     LegendNANA
16:00 3.6 -8.3 42 0.0 3 6   100.60     LegendNANA
17:00 3.1 -8.4 42 0.0 5 2   100.63     LegendNANA
18:00 3.4 -7.5 45 0.0 3 7   100.64     LegendNANA
19:00 3.7 -7.6 43 0.0 2 11   100.64     LegendNANA
20:00 3.7 -7.4 44 0.0 2 11   100.69     LegendNANA
21:00 3.3 -7.3 46 0.0 2 11   100.69     LegendNANA
22:00 3.2 -7.7 45 0.0 3 10   100.68     LegendNANA
23:00 3.0 -8.2 44 0.0 2 9   100.68     LegendNANA

Notes on Data Quality.

Legend

  • E = Estimated
  • M = Missing
  • NA = Not Available*
  • [empty] = Indicates an unobserved value
Date modified: